This is the latest recevied weather packets stored in our database for station/object N5DGC. If no packets are shown the sender has not sent any weather packets the latest 10 day(s).
| Time | Temp. | Humidity | Pressure | Rain* | Wind** | Luminosity | Snow |
|---|---|---|---|---|---|---|---|
| 1777677457 | 15.56° C | 45% | 1236.9 hPa | 0 mm | - | 470 W/m² | - |
| 1777677155 | 15° C | 45% | 1236.8 hPa | 0 mm | - | 582 W/m² | - |
| 1777676852 | 14.44° C | 48% | 1236.8 hPa | 0 mm | - | 604 W/m² | - |
| 1777676551 | 13.89° C | 50% | 1236.9 hPa | 0 mm | - | 303 W/m² | - |
| 1777676249 | 14.44° C | 46% | 1236.6 hPa | 0 mm | - | 189 W/m² | - |
| 1777675946 | 14.44° C | 46% | 1236.6 hPa | 0 mm | - | 175 W/m² | - |
| 1777675641 | 14.44° C | 45% | 1236.5 hPa | 0 mm | - | 200 W/m² | - |
| 1777675339 | 15° C | 44% | 1236.5 hPa | 0 mm | - | 266 W/m² | - |
| 1777675035 | 15° C | 44% | 1236.2 hPa | 0 mm | - | 239 W/m² | - |
| 1777674732 | 15° C | 44% | 1236.3 hPa | 0 mm | - | 593 W/m² | - |
| 1777674429 | 15° C | 45% | 1236.1 hPa | 0 mm | - | 752 W/m² | - |
| 1777674126 | 14.44° C | 45% | 1236.3 hPa | 0 mm | - | 808 W/m² | - |
| 1777673822 | 13.89° C | 47% | 1236.1 hPa | 0 mm | - | 448 W/m² | - |
| 1777673519 | 13.33° C | 49% | 1235.5 hPa | 0 mm | - | 301 W/m² | - |
| 1777673217 | 13.89° C | 48% | 1236 hPa | 0 mm | - | 161 W/m² | - |
| 1777672914 | 13.89° C | 48% | 1236.2 hPa | 0 mm | - | 149 W/m² | - |
| 1777672611 | 13.89° C | 48% | 1236.3 hPa | 0 mm | - | 182 W/m² | - |
| 1777672306 | 14.44° C | 46% | 1236.7 hPa | 0 mm | - | 283 W/m² | - |
| 1777672001 | 13.89° C | 48% | 1236.2 hPa | 0 mm | - | 301 W/m² | - |
| 1777671697 | 13.89° C | 47% | 1236.5 hPa | 0 mm | - | 269 W/m² | - |
| 1777671394 | 14.44° C | 46% | 1236.1 hPa | 0 mm | - | 250 W/m² | - |
| 1777671090 | 14.44° C | 47% | 1235.9 hPa | 0 mm | - | 255 W/m² | - |
| 1777670787 | 14.44° C | 47% | 1236.1 hPa | 0 mm | - | 278 W/m² | - |
| 1777670483 | 14.44° C | 46% | 1236.1 hPa | 0 mm | - | 272 W/m² | - |
| 1777670180 | 14.44° C | 47% | 1236.1 hPa | 0 mm | - | 309 W/m² | - |
* Rain latest hour (hover to see other rain measurements)
** Current wind speed in m/s (hover to see current wind gust speed)